Simultaneous Nadir Overpasses (SNOs) Predictions

Prediction of SNOs between AQUA and GOES-15 Satellite Orbit:

Table of predicted SNOs for the next 14.0 days since TLE Epoch: 3/12/2022
Index Date Time (AQUA) AQUA Lat,Lon GOES-15 Lat,Lon Distance(km) Time Diff (sec)
1 03/12/2022 10:12:32 0.25,-128.85 0.07,-127.87 110.87 80
2 03/14/2022 10:00:14 -0.36,-125.85 0.07,-127.94 236.52 80
3 03/14/2022 22:21:37 -0.72,-131.04 -0.08,-127.95 351.36 80
4 03/16/2022 22:09:19 -0.10,-128.05 -0.08,-128.02 4.39 80
5 03/18/2022 21:57:01 0.54,-125.06 -0.08,-128.08 342.60 80
6 03/19/2022 10:18:15 0.53,-130.21 0.08,-128.10 240.27 80
7 03/21/2022 10:05:57 -0.13,-127.23 0.08,-128.15 105.89 80
8 03/21/2022 22:27:19 -0.99,-132.40 -0.08,-128.16 482.59 80
9 03/23/2022 09:53:38 -0.75,-124.23 0.08,-128.20 451.32 80
10 03/23/2022 22:15:00 -0.37,-129.41 -0.09,-128.21 137.35 80
11 03/25/2022 22:02:41 0.27,-126.41 -0.09,-128.24 207.41 80
